Weather History for K4A9 - August, 2014

Change the Weather History Date:

Sunday, August 10, 2014

  Actual Average (KRMG) Record (KRMG)
Temperature  
Mean Temperature 78 °F 79 °F  
Max Temperature 86 °F 90 °F 102 °F (2007)
Min Temperature 69 °F 69 °F 0 °F (1996)
Cooling Degree Days 12 14  
Month to date cooling degree days 145  
Year to date cooling degree days 1089  
Since 1 June cooling degree days 921  
Growing Degree Days 28 (Base 50)    
Moisture  
Dew Point 68 °F    
Average Humidity 78    
Maximum Humidity 94    
Minimum Humidity 51    
Precipitation  
Precipitation 0.00 in 0.15 in 0.77 in (2004)
Month to date precipitation 1.35  
Year to date precipitation 32.64  
Sea Level Pressure  
Sea Level Pressure 30.01 in    
Wind  
Wind Speed 3 mph (WSW)    
Max Wind Speed 10 mph    
Max Gust Speed -    
Visibility 9 miles    
Events Thunderstorm    
T = Trace of Precipitation, MM = Missing Value Source: NWS Daily Summary

Daily Weather History Graph

Daily Weather History Graph

Search for Another Location

Airport or City:

Trip Planner

Search our weather history database for the weather conditions in past years. The results will help you decide how hot, cold, wet, or windy it might be!

Date:

Astronomy

Aug. 10, 2014 Rise Set
Actual Time 6:00 AM CDT 7:35 PM CDT
Civil Twilight 5:33 AM CDT 8:02 PM CDT
Nautical Twilight 5:00 AM CDT 8:35 PM CDT
Astronomical Twilight 4:26 AM CDT 9:09 PM CDT
Moon 7:25 PM CDT (8/10) 5:49 AM CDT (8/10)
Length of Visible Light 14h 29m
Length of Day
13h 35m
Full, 100% of the Moon is Illuminated
Aug 10
Full
Aug 10
Full
Aug 17
Last Quarter
Aug 25
New
Sep 2
First Quarter

Hourly Weather History & Observations

Time (CDT) Temp. Heat Index Dew Point Humidity Pressure Visibility Wind Dir Wind Speed Gust Speed Precip Events Conditions
12:15 AM 73.4 °F - 69.8 °F 88% 30.00 in 7.0 mi SW 4.6 mph - N/A   Overcast
12:35 AM 73.4 °F - 69.8 °F 88% 29.99 in 7.0 mi SW 4.6 mph - N/A   Overcast
12:55 AM 73.4 °F - 69.8 °F 88% 29.98 in 10.0 mi SW 3.5 mph - N/A   Overcast
1:15 AM 71.6 °F - 68.0 °F 88% 29.98 in 10.0 mi SW 3.5 mph - N/A   Overcast
1:35 AM 71.6 °F - 68.0 °F 88% 29.97 in 10.0 mi SW 3.5 mph - N/A   Mostly Cloudy
1:55 AM 71.6 °F - 68.0 °F 88% 29.98 in 7.0 mi WSW 4.6 mph - N/A   Mostly Cloudy
2:15 AM 71.6 °F - 68.0 °F 88% 29.98 in 7.0 mi Calm Calm - N/A   Overcast
2:35 AM 71.6 °F - 68.0 °F 88% 29.98 in 10.0 mi SW 4.6 mph - N/A   Overcast
2:55 AM 71.6 °F - 68.0 °F 88% 29.98 in 10.0 mi SW 3.5 mph - N/A   Overcast
3:15 AM 71.6 °F - 68.0 °F 88% 29.98 in 10.0 mi Calm Calm - N/A   Overcast
3:35 AM 71.6 °F - 68.0 °F 88% 29.99 in 10.0 mi Calm Calm - N/A   Overcast
3:55 AM 71.6 °F - 68.0 °F 88% 29.99 in 10.0 mi Calm Calm - N/A   Overcast
4:15 AM 71.6 °F - 68.0 °F 88% 30.00 in 10.0 mi Calm Calm - N/A   Overcast
4:35 AM 71.6 °F - 68.0 °F 88% 30.00 in 7.0 mi SW 4.6 mph - N/A   Overcast
5:15 AM 71.6 °F - 68.0 °F 88% 30.01 in 10.0 mi Calm Calm - N/A   Overcast
5:35 AM 71.6 °F - 68.0 °F 88% 30.01 in 7.0 mi Calm Calm - N/A   Overcast
5:55 AM 71.6 °F - 68.0 °F 88% 30.02 in 7.0 mi SW 4.6 mph - N/A   Overcast
6:15 AM 71.6 °F - 68.0 °F 88% 30.04 in 5.0 mi SW 3.5 mph - N/A   Overcast
6:35 AM 71.6 °F - 68.0 °F 88% 30.04 in 5.0 mi SW 4.6 mph - N/A   Overcast
6:55 AM 71.6 °F - 68.0 °F 88% 30.04 in 4.0 mi SSW 4.6 mph - N/A   Overcast
7:15 AM 71.6 °F - 68.0 °F 88% 30.05 in 4.0 mi Calm Calm - N/A   Overcast
7:35 AM 71.6 °F - 68.0 °F 88% 30.06 in 3.0 mi West 3.5 mph - N/A   Overcast
7:55 AM 71.6 °F - 68.0 °F 88% 30.05 in 4.0 mi Calm Calm - N/A   Overcast
8:15 AM 71.6 °F - 68.0 °F 88% 30.06 in 5.0 mi Calm Calm - N/A   Haze
8:35 AM 71.6 °F - 68.0 °F 88% 30.05 in 7.0 mi WSW 3.5 mph - N/A   Overcast
8:55 AM 73.4 °F - 68.0 °F 83% 30.05 in 7.0 mi Calm Calm - N/A   Overcast
9:15 AM 73.4 °F - 68.0 °F 83% 30.05 in 10.0 mi SW 4.6 mph - N/A   Overcast
9:35 AM 73.4 °F - 68.0 °F 83% 30.06 in 7.0 mi Calm Calm - N/A   Overcast
9:55 AM 73.4 °F - 68.0 °F 83% 30.06 in 7.0 mi SW 3.5 mph - N/A   Overcast
10:15 AM 73.4 °F - 68.0 °F 83% 30.06 in 7.0 mi SW 3.5 mph - N/A   Overcast
10:35 AM 73.4 °F - 68.0 °F 83% 30.06 in 7.0 mi Calm Calm - N/A   Overcast
10:55 AM 75.2 °F - 68.0 °F 78% 30.06 in 10.0 mi Calm Calm - N/A   Overcast
11:15 AM 77.0 °F - 68.0 °F 74% 30.07 in 10.0 mi Calm Calm - N/A   Overcast
11:35 AM 77.0 °F - 68.0 °F 74% 30.07 in 10.0 mi Calm Calm - N/A   Overcast
11:55 AM 77.0 °F - 69.8 °F 78% 30.06 in 10.0 mi SW 3.5 mph - N/A   Overcast
12:15 PM 78.8 °F - 69.8 °F 74% 30.06 in 10.0 mi WSW 4.6 mph - N/A   Scattered Clouds
12:35 PM 80.6 °F 83.9 °F 69.8 °F 70% 30.05 in 10.0 mi WSW 6.9 mph - N/A   Mostly Cloudy
12:55 PM 80.6 °F 83.9 °F 69.8 °F 70% 30.04 in 10.0 mi WSW 4.6 mph - N/A   Scattered Clouds
1:15 PM 82.4 °F 86.3 °F 69.8 °F 66% 30.02 in 7.0 mi WSW 4.6 mph - N/A   Mostly Cloudy
1:35 PM 82.4 °F 85.4 °F 68.0 °F 62% 30.02 in 7.0 mi SW 8.1 mph - N/A   Mostly Cloudy
1:55 PM 82.4 °F 86.3 °F 69.8 °F 66% 30.01 in 10.0 mi West 3.5 mph - N/A   Mostly Cloudy
2:15 PM 84.2 °F 87.3 °F 68.0 °F 58% 30.01 in 10.0 mi SW 9.2 mph - N/A   Mostly Cloudy
2:35 PM 82.4 °F 86.3 °F 69.8 °F 66% 30.00 in 10.0 mi West 8.1 mph - N/A   Mostly Cloudy
2:55 PM 84.2 °F 87.3 °F 68.0 °F 58% 30.00 in 10.0 mi West 6.9 mph - N/A   Mostly Cloudy
3:15 PM 86.0 °F 89.4 °F 68.0 °F 55% 29.99 in 10.0 mi West 8.1 mph - N/A   Mostly Cloudy
3:35 PM 86.0 °F 89.4 °F 68.0 °F 55% 29.99 in 10.0 mi WSW 8.1 mph - N/A   Mostly Cloudy
3:55 PM 86.0 °F 89.4 °F 68.0 °F 55% 29.98 in 10.0 mi WSW 5.8 mph - N/A   Scattered Clouds
4:15 PM 86.0 °F 89.4 °F 68.0 °F 55% 29.98 in 10.0 mi SW 5.8 mph - N/A   Scattered Clouds
4:35 PM 86.0 °F 89.4 °F 68.0 °F 55% 29.97 in 10.0 mi West 4.6 mph - N/A   Scattered Clouds
4:55 PM 86.0 °F 88.2 °F 66.2 °F 51% 29.97 in 10.0 mi West 4.6 mph - N/A   Clear
5:15 PM 84.2 °F 87.3 °F 68.0 °F 58% 29.97 in 10.0 mi West 3.5 mph - N/A   Clear
5:35 PM 84.2 °F 87.3 °F 68.0 °F 58% 29.97 in 10.0 mi Calm Calm - N/A Thunderstorm Clear
5:55 PM 82.4 °F 85.4 °F 68.0 °F 62% 29.96 in 10.0 mi NW 3.5 mph - N/A Thunderstorm Scattered Clouds
6:15 PM 80.6 °F 84.6 °F 71.6 °F 74% 29.96 in 10.0 mi West 3.5 mph - N/A   Scattered Clouds
6:35 PM 80.6 °F 83.9 °F 69.8 °F 70% 29.97 in 10.0 mi West 3.5 mph - N/A   Clear
6:55 PM 80.6 °F 83.2 °F 68.0 °F 65% 29.98 in 10.0 mi West 10.4 mph - N/A Thunderstorm Clear
7:15 PM 77.0 °F - 64.4 °F 65% 29.97 in 10.0 mi WSW 5.8 mph - N/A   Scattered Clouds
7:35 PM 77.0 °F - 64.4 °F 65% 29.97 in 10.0 mi SW 5.8 mph - N/A   Light Drizzle
7:55 PM 75.2 °F - 68.0 °F 78% 29.98 in 10.0 mi Calm Calm - N/A   Light Drizzle
8:15 PM 73.4 °F - 68.0 °F 83% 29.99 in 10.0 mi Calm Calm - N/A   Mostly Cloudy
8:35 PM 73.4 °F - 68.0 °F 83% 30.00 in 10.0 mi Calm Calm - N/A   Mostly Cloudy
8:55 PM 73.4 °F - 68.0 °F 83% 30.00 in 10.0 mi Calm Calm - N/A   Mostly Cloudy
9:15 PM 71.6 °F - 68.0 °F 88% 30.01 in 10.0 mi Calm Calm - N/A   Scattered Clouds
9:35 PM 71.6 °F - 68.0 °F 88% 30.01 in 10.0 mi Calm Calm - N/A   Clear
9:55 PM 71.6 °F - 68.0 °F 88% 30.01 in 10.0 mi Calm Calm - N/A   Clear
10:15 PM 71.6 °F - 68.0 °F 88% 30.02 in 10.0 mi Calm Calm - N/A   Clear
10:35 PM 71.6 °F - 68.0 °F 88% 30.02 in 10.0 mi Calm Calm - N/A   Clear
11:15 PM 69.8 °F - 68.0 °F 94% 30.03 in 10.0 mi Calm Calm - N/A   Clear
11:35 PM 69.8 °F - 68.0 °F 94% 30.02 in 10.0 mi Calm Calm - N/A   Clear
11:55 PM 69.8 °F - 66.2 °F 88% 30.02 in 10.0 mi Calm Calm - N/A   Clear